Regional Weather Roundup
Issued by NWS Northern Indiana

Home | Current Version | Previous Version | Text Only | Print | Product List | Glossary Off
Versions: 1 2 3 4 5 6 7 8 9 10 11 12 13 14 15 16 17 18 19 20 21 22 23 24 25 26 27 28 29 30 31 32 33 34 35 36 37 38 39 40 41 42 43 44 45 46 47 48 49 50

000
ASUS43 KIWX 282010
RWRIWX

KIWX WEATHER ROUNDUP
NATIONAL WEATHER SERVICE NORTHERN INDIANA
400 PM EDT THU JUL 28 2016

NOTE: "FAIR" INDICATES FEW OR NO CLOUDS BELOW 12,000 FEET WITH NO
SIGNIFICANT WEATHER AND/OR OBSTRUCTIONS TO VISIBILITY.

* THESE STATIONS ARE NOT UNDER NWS QUALITY CONTROL. THEY ALSO MAY NOT
  REPORT WEATHER SUCH AS PRECIPITATION OR FOG.

INZ001>027-282100-
NORTHERN INDIANA

CITY           SKY/WX    TMP DP  RH WIND       PRES   REMARKS
GARY*          PTSUNNY   75  72  88 SW12      29.90R
VALPARAISO     PTSUNNY   86  66  51 VRB6      29.88S
MICHIGAN CITY* PTSUNNY   82  70  65 N8        29.87S
LAPORTE*       MOSUNNY   86  69  56 S5        29.88S
KNOX*          SUNNY     84  52  32 CALM      29.87S
SOUTH BEND       N/A    N/A N/A N/A MISG      29.88F
ELKHART*       MOSUNNY   86  64  48 E7        29.87
GOSHEN         MOSUNNY   87  64  46 E9        29.87F
MONTICELLO*    PTSUNNY   84  65  51 CALM      29.87S
LOGANSPORT*    MOSUNNY   82  66  57 SW3       29.88F
ROCHESTER*     MOSUNNY   88  68  51 NE6       29.88F
WARSAW*        PTSUNNY   82  68  61 E5        29.88F
ANGOLA*          N/A     82  77  83 NE7       29.90S
FORT WAYNE     CLOUDY    86  64  47 E5        29.87F
HUNTINGTON*    PTSUNNY   83  68  60 SE3       29.87F
MARION*        MOSUNNY   83  67  58 NW3       29.89S HAZE

$$
INZ028>050-282100-
CENTRAL INDIANA

CITY           SKY/WX    TMP DP  RH WIND       PRES   REMARKS
LAFAYETTE      SUNNY     85  69  58 W3        29.86F
KOKOMO*        MOSUNNY   88  66  48 N6        29.87F
MUNCIE*        CLOUDY    86  66  51 VRB3      29.88S
INDIANAPOLIS   CLOUDY    86  67  52 VRB5      29.87F

$$
MIZ043>046-050>051-056>058-064>065-071>073-077>080-282100-
SOUTHWEST LOWER MICHIGAN

CITY           SKY/WX    TMP DP  RH WIND       PRES   REMARKS
BATTLE CREEK   SUNNY     80  64  58 CALM      29.91S
BENTON HARBOR  CLOUDY    82  65  56 CALM      29.88S
COLDWATER*     MOSUNNY   82  67  59 NE6       29.90F
HILLSDALE*     CLOUDY    83  64  53 CALM      29.90F
HOLLAND        MOSUNNY   85  67  54 E3        29.89F
GRAND RAPIDS   PTSUNNY   84  67  56 E12       29.90F
KALAMAZOO      MOSUNNY   85  66  53 E5        29.89F
STURGIS*       MOSUNNY   84  66  55 E8        29.89S
THREE RIVERS*  FAIR      85  64  49 E7        29.89F

$$
OHZ001>008-015>018-024>025-282100-
NORTHWEST OHIO

CITY           SKY/WX    TMP DP  RH WIND       PRES   REMARKS
DEFIANCE       CLOUDY    85  67  54 NE7       29.88F
FINDLAY        PTSUNNY   87  62  43 NE8       29.86F
TOLEDO EXPRESS CLOUDY    83  69  62 NE5       29.87F
TOLEDO METCALF PTSUNNY   84  69  60 NE12      29.89F
LIMA           CLOUDY    84  67  56 E8        29.87F

$$
AND FOR LAKE MICHIGAN COASTAL AND OPEN LAKE BUOY OBSERVATIONS

STATION/POSITION TEMP    WIND        PRES    VSBY  WAVE
                 AIR SEA DIR/SP/G                  HT/PER
                 (F)     (DEG/KT/KT) (MB)    (MI)  (FT/S)
CALUMET HARBOR    78     360/  5/  7 1011.2F
MICHIGAN CITY     79     340/  9/  9   N/A
BURNS HARBOR      80      40/  8/  9 1011.9F
SAINT JOSEPH      80      10/  7/  9 1012.9R
SOUTH LAKE BUOY   75 78   30/  6/  6 1011.3          2/ 5
4 MI NW BRIDGMAN  77 78  350/  8/ 10 1011.0F         1
MICHIGAN CITY     78 78   10/  8/ 12   N/A           1

$$
&&




USA.gov is the U.S. government's official web portal to all federal, state and local government web resources and services.